| time (UTC) | temp F | wind direction | speed MPH | gust MPH | rain 1hr in | rain 24hr in | rain mn in | humidity % | barometer mb |
| 20260831080337 | 69 | 174 | 3.0 | 6.0 | 0.00 | 0.19 | 0.04 | 96 | 1027.8 |
| 20260831080013 | 69 | 165 | 4.0 | 8.0 | 0.00 | 0.19 | 0.04 | 96 | 1027.8 |
| 20260831073016 | 68 | 157 | 4.0 | 7.0 | 0.00 | 0.19 | 0.04 | 96 | 1027.8 |
| 20260831070401 | 68 | 155 | 2.0 | 6.0 | 0.00 | 0.19 | 0.04 | 97 | 1027.9 |
| 20260831070121 | 68 | 155 | 3.0 | 7.0 | 0.00 | 0.19 | 0.04 | 97 | 1028.0 |
| 20260831063129 | 68 | 163 | 3.0 | 7.0 | 0.00 | 0.19 | 0.04 | 98 | 1028.1 |
| 20260831060408 | 67 | 132 | 3.0 | 8.0 | 0.00 | 0.19 | 0.04 | 98 | 1028.2 |
| 20260831060050 | 67 | 156 | 2.0 | 8.0 | 0.00 | 0.19 | 0.04 | 98 | 1028.2 |
| 20260831053053 | 67 | 157 | 3.0 | 10.0 | 0.00 | 0.19 | 0.04 | 98 | 1028.3 |
| 20260831050358 | 67 | 163 | 3.0 | 12.0 | 0.03 | 0.19 | 0.04 | 98 | 1028.3 |
| 20260831050039 | 67 | 173 | 2.0 | 12.0 | 0.03 | 0.19 | 0.04 | 98 | 1028.3 |
| 20260831043041 | 68 | 162 | 5.0 | 9.0 | 0.09 | 0.19 | 0.04 | 99 | 1028.8 |
| 20260831040335 | 68 | 159 | 3.0 | 8.0 | 0.09 | 0.16 | 0.01 | 99 | 1029.4 |
| 20260831040114 | 68 | 192 | 3.0 | 8.0 | 0.09 | 0.16 | 0.01 | 98 | 1029.5 |
| 20260831033054 | 68 | 159 | 1.0 | 5.0 | 0.03 | 0.10 | 0.10 | 98 | 1030.0 |
| 20260831033012 | 68 | 159 | 1.0 | 5.0 | 0.03 | 0.10 | 0.10 | 98 | 1030.0 |
| 20260831030316 | 68 | 48 | 2.0 | 4.0 | 0.00 | 0.07 | 0.07 | 98 | 1030.0 |
| 20260831030036 | 68 | 125 | 0.0 | 5.0 | 0.00 | 0.07 | 0.07 | 98 | 1029.8 |
| 20260831023109 | 68 | 134 | 1.0 | 5.0 | 0.00 | 0.07 | 0.07 | 98 | 1029.5 |
| 20260831020323 | 68 | 155 | 2.0 | 5.0 | 0.00 | 0.07 | 0.07 | 98 | 1029.7 |
| 20260831020103 | 68 | 142 | 1.0 | 5.0 | 0.00 | 0.07 | 0.07 | 98 | 1029.7 |
| 20260831013010 | 69 | 125 | 2.0 | 4.0 | 0.01 | 0.07 | 0.07 | 98 | 1029.9 |
| 20260831010312 | 69 | 228 | 0.0 | 1.0 | 0.01 | 0.07 | 0.07 | 98 | 1030.2 |
| 20260831010010 | 69 | 228 | 0.0 | 1.0 | 0.01 | 0.07 | 0.07 | 98 | 1030.2 |
| 20260831003018 | 70 | 244 | 0.0 | 1.0 | 0.01 | 0.06 | 0.06 | 98 | 1030.5 |
| 20260831000410 | 70 | 228 | 0.0 | 1.0 | 0.02 | 0.06 | 0.06 | 97 | 1030.2 |
| 20260831000024 | 70 | 228 | 0.0 | 1.0 | 0.02 | 0.06 | 0.06 | 97 | 1030.2 |
| 20260830233106 | 71 | 227 | 1.0 | 3.0 | 0.01 | 0.05 | 0.05 | 95 | 1029.1 |
| 20260830230325 | 71 | 228 | 0.0 | 3.0 | 0.00 | 0.04 | 0.04 | 94 | 1029.1 |
| 20260830230016 | 71 | 228 | 0.0 | 3.0 | 0.00 | 0.04 | 0.04 | 94 | 1029.0 |
| 20260830193040 | 73 | 127 | 2.0 | 4.0 | 0.00 | 0.04 | 0.04 | 91 | 1029.4 |
| 20260830190337 | 73 | 150 | 1.0 | 5.0 | 0.01 | 0.04 | 0.04 | 93 | 1029.7 |
| 20260830190012 | 73 | 134 | 3.0 | 5.0 | 0.01 | 0.04 | 0.04 | 93 | 1029.8 |
| 20260830183044 | 71 | 298 | 3.0 | 9.0 | 0.01 | 0.04 | 0.04 | 94 | 1030.6 |
| 20260830180353 | 72 | 239 | 1.0 | 7.0 | 0.00 | 0.03 | 0.03 | 92 | 1030.7 |
| 20260830180035 | 72 | 244 | 2.0 | 7.0 | 0.00 | 0.03 | 0.03 | 92 | 1030.7 |
| 20260830173049 | 72 | 248 | 2.0 | 5.0 | 0.01 | 0.03 | 0.03 | 92 | 1031.0 |
| 20260830170346 | 71 | 198 | 1.0 | 3.0 | 0.01 | 0.03 | 0.03 | 93 | 1031.0 |
| 20260830170021 | 71 | 198 | 1.0 | 3.0 | 0.01 | 0.03 | 0.03 | 94 | 1031.0 |
| 20260830163031 | 70 | 273 | 1.0 | 2.0 | 0.01 | 0.02 | 0.02 | 94 | 1031.1 |
| 20260830160333 | 71 | 229 | 1.0 | 3.0 | 0.02 | 0.02 | 0.02 | 92 | 1031.0 |
| 20260830160051 | 71 | 229 | 1.0 | 3.0 | 0.02 | 0.02 | 0.02 | 92 | 1031.0 |
| 20260830153024 | 71 | 231 | 0.0 | 3.0 | 0.01 | 0.01 | 0.01 | 90 | 1031.1 |
| 20260830150319 | 72 | 250 | 0.0 | 1.0 | 0.00 | 0.00 | 0.00 | 88 | 1030.9 |
| 20260830150058 | 72 | 250 | 0.0 | 3.0 | 0.00 | 0.00 | 0.00 | 88 | 1030.8 |
| 20260830143010 | 72 | 243 | 0.0 | 0.0 | 0.00 | 0.00 | 0.00 | 85 | 1030.5 |
| 20260830140414 | 72 | 243 | 0.0 | 1.0 | 0.00 | 0.00 | 0.00 | 84 | 1030.4 |
| 20260830140024 | 72 | 243 | 0.0 | 1.0 | 0.00 | 0.00 | 0.00 | 83 | 1030.3 |
| 20260830133127 | 72 | 240 | 3.0 | 5.0 | 0.00 | 0.00 | 0.00 | 80 | 1029.9 |
| 20260830133024 | 72 | 240 | 3.0 | 5.0 | 0.00 | 0.00 | 0.00 | 80 | 1029.9 |
| 20260830130340 | 71 | 180 | 1.0 | 4.0 | 0.00 | 0.00 | 0.00 | 80 | 1029.7 |
| 20260830130119 | 71 | 225 | 1.0 | 4.0 | 0.00 | 0.00 | 0.00 | 80 | 1029.7 |
| 20260830130036 | 71 | 225 | 1.0 | 4.0 | 0.00 | 0.00 | 0.00 | 80 | 1029.7 |
| 20260830123015 | 71 | 250 | 2.0 | 4.0 | 0.00 | 0.00 | 0.00 | 78 | 1029.7 |
| 20260830120333 | 71 | 189 | 2.0 | 4.0 | 0.00 | 0.00 | 0.00 | 77 | 1029.4 |
| 20260830120029 | 71 | 221 | 1.0 | 4.0 | 0.00 | 0.00 | 0.00 | 78 | 1029.4 |
| 20260830113051 | 71 | 271 | 1.0 | 5.0 | 0.00 | 0.00 | 0.00 | 76 | 1029.3 |
| 20260830110317 | 71 | 260 | 2.0 | 4.0 | 0.00 | 0.00 | 0.00 | 74 | 1029.4 |
| 20260830110020 | 71 | 244 | 2.0 | 4.0 | 0.00 | 0.00 | 0.00 | 74 | 1029.5 |
| 20260830103036 | 71 | 202 | 2.0 | 8.0 | 0.00 | 0.00 | 0.00 | 74 | 1029.5 |
| 20260830100418 | 70 | 196 | 2.0 | 5.0 | 0.00 | 0.00 | 0.00 | 75 | 1029.7 |
| 20260830100032 | 70 | 233 | 2.0 | 6.0 | 0.00 | 0.00 | 0.00 | 75 | 1029.7 |
| 20260830093048 | 69 | 190 | 3.0 | 5.0 | 0.00 | 0.00 | 0.00 | 77 | 1029.7 |
| 20260830090344 | 69 | 123 | 2.0 | 3.0 | 0.00 | 0.00 | 0.00 | 79 | 1029.7 |
| 20260830083013 | 68 | 164 | 2.0 | 5.0 | 0.00 | 0.00 | 0.00 | 81 | 1029.7 |